Time,TemperatureF,DewpointF,PressureIn,WindDirection,WindDirectionDegrees,WindSpeedMPH,WindSpeedGustMPH,Humidity,HourlyPrecipIn,Conditions,Clouds,dailyrainin,SoftwareType,DateUTC
2013-12-07 00:00:00,35.3,33.7,30.39,East,90,3.0,10.0,94,0.00,,,-99.99,WeatherLink 6.0.3,2013-12-07 05:00:00,
2013-12-07 00:01:00,60.1,59.2,29.94,NW,313,0.0,1.0,97,0.13,,,0.31,Wunderground v.1.15,2013-12-07 05:01:00,
2013-12-07 00:02:00,60.1,59.2,29.94,NW,313,1.0,1.0,97,0.11,,,0.31,Wunderground v.1.15,2013-12-07 05:02:00,
2013-12-07 00:03:00,60.1,59.2,29.94,NW,313,0.0,1.0,97,0.09,,,0.31,Wunderground v.1.15,2013-12-07 05:03:00,
2013-12-07 00:05:00,60.0,59.1,29.94,NW,313,0.0,1.0,97,0.09,,,0.32,Wunderground v.1.15,2013-12-07 05:05:00,
2013-12-07 00:10:00,59.9,59.0,29.94,WNW,298,0.0,0.0,97,0.11,,,0.33,Wunderground v.1.15,2013-12-07 05:10:00,
2013-12-07 00:12:00,59.9,59.0,29.94,WNW,298,0.0,0.0,97,0.11,,,0.33,Wunderground v.1.15,2013-12-07 05:12:00,
2013-12-07 00:17:00,59.8,58.9,29.94,WNW,300,0.0,1.0,97,0.07,,,0.33,Wunderground v.1.15,2013-12-07 05:17:00,
2013-12-07 00:22:00,59.7,58.8,29.93,WNW,300,0.0,0.0,97,0.04,,,0.33,Wunderground v.1.15,2013-12-07 05:22:00,
2013-12-07 00:28:00,59.6,58.7,29.93,WNW,300,0.0,0.0,97,0.00,,,0.33,Wunderground v.1.15,2013-12-07 05:28:00,
2013-12-07 00:30:00,34.8,33.5,30.40,East,90,3.0,9.0,95,0.00,,,-99.99,WeatherLink 6.0.3,2013-12-07 05:30:00,
2013-12-07 00:33:00,59.6,58.7,29.93,WNW,300,0.0,0.0,97,0.00,,,0.33,Wunderground v.1.15,2013-12-07 05:33:00,
2013-12-07 00:39:00,59.5,58.9,29.94,WNW,300,0.0,0.0,98,0.00,,,0.34,Wunderground v.1.15,2013-12-07 05:39:00,
2013-12-07 00:45:00,59.4,58.5,29.92,WNW,300,0.0,0.0,97,0.00,,,0.34,Wunderground v.1.15,2013-12-07 05:45:00,
2013-12-07 00:50:00,59.4,58.5,29.93,WNW,300,0.0,0.0,97,0.00,,,0.34,Wunderground v.1.15,2013-12-07 05:50:00,
2013-12-07 00:55:00,59.3,58.7,29.93,WNW,300,0.0,0.0,98,0.00,,,0.34,Wunderground v.1.15,2013-12-07 05:55:00,
2013-12-07 01:00:00,35.0,34.0,30.38,ENE,67,1.0,6.0,96,0.01,,,-99.99,WeatherLink 6.0.3,2013-12-07 06:00:00,
2013-12-07 01:01:00,59.3,58.7,29.93,WNW,300,0.0,0.0,98,0.00,,,0.34,Wunderground v.1.15,2013-12-07 06:01:00,
2013-12-07 01:06:00,59.3,58.7,29.93,WNW,300,1.0,1.0,98,0.00,,,0.34,Wunderground v.1.15,2013-12-07 06:06:00,
2013-12-07 01:11:00,59.3,58.7,29.93,WNW,300,0.0,1.0,98,0.00,,,0.34,Wunderground v.1.15,2013-12-07 06:11:00,
2013-12-07 01:17:00,59.3,58.7,29.93,WNW,300,0.0,1.0,98,0.00,,,0.34,Wunderground v.1.15,2013-12-07 06:17:00,
2013-12-07 01:23:00,59.3,58.7,29.92,WNW,300,0.0,0.0,98,0.00,,,0.34,Wunderground v.1.15,2013-12-07 06:23:00,
2013-12-07 01:28:00,59.1,58.5,29.92,WNW,300,0.0,0.0,98,0.00,,,0.34,Wunderground v.1.15,2013-12-07 06:28:00,
2013-12-07 01:30:00,35.1,34.1,30.37,East,90,2.0,7.0,96,0.02,,,-99.99,WeatherLink 6.0.3,2013-12-07 06:30:00,
2013-12-07 01:33:00,59.0,58.4,29.92,WNW,300,0.0,0.0,98,0.00,,,0.34,Wunderground v.1.15,2013-12-07 06:33:00,
2013-12-07 01:39:00,59.0,58.4,29.91,WNW,300,0.0,0.0,98,0.00,,,0.34,Wunderground v.1.15,2013-12-07 06:39:00,
2013-12-07 01:45:00,59.0,58.4,29.91,WNW,300,0.0,0.0,98,0.00,,,0.34,Wunderground v.1.15,2013-12-07 06:45:00,
2013-12-07 01:51:00,59.0,58.4,29.91,WNW,300,0.0,0.0,98,0.00,,,0.34,Wunderground v.1.15,2013-12-07 06:51:00,
2013-12-07 01:56:00,59.0,58.4,29.91,WNW,300,1.0,1.0,98,0.00,,,0.34,Wunderground v.1.15,2013-12-07 06:56:00,
2013-12-07 02:00:00,34.7,33.4,30.36,East,90,2.0,6.0,95,0.01,,,-99.99,WeatherLink 6.0.3,2013-12-07 07:00:00,
2013-12-07 02:01:00,59.0,58.4,29.91,WNW,300,0.0,0.0,98,0.00,,,0.34,Wunderground v.1.15,2013-12-07 07:01:00,
2013-12-07 02:06:00,59.0,58.4,29.92,WNW,300,0.0,0.0,98,0.00,,,0.34,Wunderground v.1.15,2013-12-07 07:06:00,
2013-12-07 02:11:00,59.0,58.4,29.91,WNW,300,0.0,0.0,98,0.00,,,0.34,Wunderground v.1.15,2013-12-07 07:11:00,
2013-12-07 02:16:00,59.0,58.4,29.92,WNW,300,0.0,1.0,98,0.00,,,0.34,Wunderground v.1.15,2013-12-07 07:16:00,
2013-12-07 02:21:00,59.0,58.4,29.93,WNW,300,0.0,0.0,98,0.00,,,0.34,Wunderground v.1.15,2013-12-07 07:21:00,
2013-12-07 02:26:00,59.0,58.4,29.94,WNW,300,0.0,0.0,98,0.00,,,0.34,Wunderground v.1.15,2013-12-07 07:26:00,
2013-12-07 02:30:00,34.9,33.9,30.35,East,90,1.0,5.0,96,0.00,,,-99.99,WeatherLink 6.0.3,2013-12-07 07:30:00,
2013-12-07 02:31:00,59.0,58.4,29.93,WNW,300,0.0,0.0,98,0.00,,,0.34,Wunderground v.1.15,2013-12-07 07:31:00,
2013-12-07 02:36:00,59.0,58.4,29.94,WNW,300,0.0,0.0,98,0.00,,,0.34,Wunderground v.1.15,2013-12-07 07:36:00,
2013-12-07 02:41:00,59.0,58.4,29.95,WNW,300,0.0,0.0,98,0.00,,,0.34,Wunderground v.1.15,2013-12-07 07:41:00,
2013-12-07 02:46:00,59.0,58.4,29.95,WNW,300,0.0,1.0,98,0.00,,,0.34,Wunderground v.1.15,2013-12-07 07:46:00,
2013-12-07 02:51:00,59.0,58.4,29.96,WNW,300,1.0,1.0,98,0.00,,,0.34,Wunderground v.1.15,2013-12-07 07:51:00,
2013-12-07 02:56:00,59.0,58.4,29.96,WNW,300,0.0,2.0,98,0.00,,,0.34,Wunderground v.1.15,2013-12-07 07:56:00,
2013-12-07 03:00:00,35.1,34.1,30.33,East,90,1.0,6.0,96,0.00,,,-99.99,WeatherLink 6.0.3,2013-12-07 08:00:00,
2013-12-07 03:01:00,59.0,58.4,29.97,WNW,300,1.0,2.0,98,0.00,,,0.34,Wunderground v.1.15,2013-12-07 08:01:00,
2013-12-07 03:06:00,59.0,58.4,29.98,WNW,300,1.0,2.0,98,0.00,,,0.35,Wunderground v.1.15,2013-12-07 08:06:00,
2013-12-07 03:11:00,59.0,58.4,29.97,WNW,300,0.0,1.0,98,0.00,,,0.35,Wunderground v.1.15,2013-12-07 08:11:00,
2013-12-07 03:17:00,59.0,58.4,29.96,WNW,300,0.0,1.0,98,0.00,,,0.35,Wunderground v.1.15,2013-12-07 08:17:00,
2013-12-07 03:22:00,59.0,58.4,29.96,WNW,300,0.0,0.0,98,0.00,,,0.35,Wunderground v.1.15,2013-12-07 08:22:00,
2013-12-07 03:27:00,59.0,58.4,29.96,WNW,300,0.0,2.0,98,0.00,,,0.35,Wunderground v.1.15,2013-12-07 08:27:00,
2013-12-07 03:30:00,35.1,34.1,30.32,East,90,2.0,7.0,96,0.00,,,-99.99,WeatherLink 6.0.3,2013-12-07 08:30:00,
2013-12-07 03:32:00,59.0,58.4,29.96,WNW,300,0.0,0.0,98,0.00,,,0.35,Wunderground v.1.15,2013-12-07 08:32:00,
2013-12-07 03:37:00,59.0,58.4,29.97,WNW,300,0.0,0.0,98,0.00,,,0.35,Wunderground v.1.15,2013-12-07 08:37:00,
2013-12-07 03:42:00,59.0,58.4,29.97,WNW,300,0.0,0.0,98,0.00,,,0.35,Wunderground v.1.15,2013-12-07 08:42:00,
2013-12-07 03:47:00,59.0,58.4,29.97,WNW,300,0.0,0.0,98,0.00,,,0.35,Wunderground v.1.15,2013-12-07 08:47:00,
2013-12-07 03:52:00,59.0,58.4,29.98,WNW,300,0.0,0.0,98,0.00,,,0.35,Wunderground v.1.15,2013-12-07 08:52:00,
2013-12-07 03:57:00,59.0,58.4,29.98,WNW,300,0.0,0.0,98,0.00,,,0.35,Wunderground v.1.15,2013-12-07 08:57:00,
2013-12-07 04:00:00,34.7,33.7,30.31,East,90,2.0,7.0,96,0.00,,,-99.99,WeatherLink 6.0.3,2013-12-07 09:00:00,
2013-12-07 04:02:00,59.0,58.7,29.98,WNW,300,0.0,0.0,99,0.00,,,0.35,Wunderground v.1.15,2013-12-07 09:02:00,
2013-12-07 04:07:00,59.0,58.7,29.98,WNW,300,0.0,1.0,99,0.00,,,0.35,Wunderground v.1.15,2013-12-07 09:07:00,
2013-12-07 04:12:00,59.0,58.7,29.98,WNW,300,0.0,0.0,99,0.00,,,0.35,Wunderground v.1.15,2013-12-07 09:12:00,
2013-12-07 04:17:00,59.0,58.7,29.98,WNW,300,0.0,1.0,99,0.00,,,0.35,Wunderground v.1.15,2013-12-07 09:17:00,
2013-12-07 04:22:00,58.9,58.6,29.98,WNW,300,0.0,0.0,99,0.00,,,0.35,Wunderground v.1.15,2013-12-07 09:22:00,
2013-12-07 04:27:00,58.8,58.5,29.98,WNW,300,0.0,0.0,99,0.00,,,0.35,Wunderground v.1.15,2013-12-07 09:27:00,
2013-12-07 04:30:00,34.4,33.4,30.31,East,90,3.0,9.0,96,0.00,,,-99.99,WeatherLink 6.0.3,2013-12-07 09:30:00,
2013-12-07 04:32:00,58.8,58.5,29.99,WNW,300,0.0,2.0,99,0.00,,,0.35,Wunderground v.1.15,2013-12-07 09:32:00,
2013-12-07 04:37:00,58.8,58.5,29.99,WNW,300,1.0,3.0,99,0.00,,,0.35,Wunderground v.1.15,2013-12-07 09:37:00,
2013-12-07 04:42:00,58.8,58.5,29.99,WNW,300,0.0,2.0,99,0.00,,,0.35,Wunderground v.1.15,2013-12-07 09:42:00,
2013-12-07 04:47:00,58.9,58.6,29.99,WNW,300,0.0,2.0,99,0.00,,,0.35,Wunderground v.1.15,2013-12-07 09:47:00,
2013-12-07 04:52:00,58.8,58.5,30.00,WNW,300,0.0,2.0,99,0.00,,,0.35,Wunderground v.1.15,2013-12-07 09:52:00,
2013-12-07 04:57:00,58.8,58.5,30.00,WNW,300,0.0,2.0,99,0.00,,,0.35,Wunderground v.1.15,2013-12-07 09:57:00,
2013-12-07 05:00:00,34.3,33.3,30.30,East,90,2.0,7.0,96,0.00,,,-99.99,WeatherLink 6.0.3,2013-12-07 10:00:00,
2013-12-07 05:02:00,58.7,58.4,30.00,WNW,300,0.0,0.0,99,0.00,,,0.35,Wunderground v.1.15,2013-12-07 10:02:00,
2013-12-07 05:07:00,58.6,58.3,30.00,WNW,300,0.0,2.0,99,0.00,,,0.35,Wunderground v.1.15,2013-12-07 10:07:00,
2013-12-07 05:12:00,58.6,58.3,30.01,WNW,300,0.0,1.0,99,0.00,,,0.35,Wunderground v.1.15,2013-12-07 10:12:00,
2013-12-07 05:17:00,58.6,58.3,30.01,WNW,300,0.0,2.0,99,0.00,,,0.35,Wunderground v.1.15,2013-12-07 10:17:00,
2013-12-07 05:22:00,58.6,58.3,30.01,WNW,300,1.0,2.0,99,0.00,,,0.35,Wunderground v.1.15,2013-12-07 10:22:00,
2013-12-07 05:27:00,58.5,58.2,30.01,WNW,300,1.0,2.0,99,0.00,,,0.35,Wunderground v.1.15,2013-12-07 10:27:00,
2013-12-07 05:30:00,34.1,33.1,30.30,East,90,3.0,7.0,96,0.00,,,-99.99,WeatherLink 6.0.3,2013-12-07 10:30:00,
2013-12-07 05:33:00,58.5,58.2,30.01,WNW,300,1.0,2.0,99,0.00,,,0.35,Wunderground v.1.15,2013-12-07 10:33:00,
2013-12-07 05:38:00,58.4,58.1,30.02,WNW,300,0.0,2.0,99,0.00,,,0.35,Wunderground v.1.15,2013-12-07 10:38:00,
2013-12-07 05:43:00,58.2,57.9,30.02,WNW,300,0.0,1.0,99,0.00,,,0.35,Wunderground v.1.15,2013-12-07 10:43:00,
2013-12-07 05:48:00,58.1,57.8,30.03,WNW,300,0.0,1.0,99,0.00,,,0.35,Wunderground v.1.15,2013-12-07 10:48:00,
2013-12-07 05:53:00,57.8,57.5,30.04,WNW,300,0.0,2.0,99,0.00,,,0.35,Wunderground v.1.15,2013-12-07 10:53:00,
2013-12-07 05:58:00,57.6,57.3,30.04,WNW,300,0.0,2.0,99,0.00,,,0.35,Wunderground v.1.15,2013-12-07 10:58:00,
2013-12-07 06:00:00,33.8,32.8,30.31,East,90,2.0,7.0,96,0.00,,,-99.99,WeatherLink 6.0.3,2013-12-07 11:00:00,
2013-12-07 06:03:00,57.4,57.1,30.05,WNW,300,0.0,1.0,99,0.00,,,0.35,Wunderground v.1.15,2013-12-07 11:03:00,
2013-12-07 06:08:00,57.1,56.5,30.05,WNW,300,0.0,1.0,98,0.00,,,0.35,Wunderground v.1.15,2013-12-07 11:08:00,
2013-12-07 06:13:00,56.9,56.3,30.06,WNW,300,1.0,1.0,98,0.00,,,0.35,Wunderground v.1.15,2013-12-07 11:13:00,
2013-12-07 06:18:00,56.4,55.8,30.06,WNW,302,0.0,3.0,98,0.00,,,0.35,Wunderground v.1.15,2013-12-07 11:18:00,
2013-12-07 06:23:00,56.2,55.6,30.06,WNW,303,0.0,3.0,98,0.00,,,0.35,Wunderground v.1.15,2013-12-07 11:23:00,
2013-12-07 06:28:00,55.9,55.3,30.07,WNW,303,0.0,3.0,98,0.00,,,0.35,Wunderground v.1.15,2013-12-07 11:28:00,
2013-12-07 06:30:00,33.4,32.4,30.30,East,90,2.0,10.0,96,0.00,,,-99.99,WeatherLink 6.0.3,2013-12-07 11:30:00,
2013-12-07 06:33:00,55.7,55.1,30.07,WNW,303,0.0,1.0,98,0.00,,,0.35,Wunderground v.1.15,2013-12-07 11:33:00,
2013-12-07 06:38:00,55.4,54.8,30.08,WNW,303,2.0,2.0,98,0.00,,,0.35,Wunderground v.1.15,2013-12-07 11:38:00,
2013-12-07 06:43:00,55.2,54.6,30.08,WNW,303,0.0,2.0,98,0.00,,,0.35,Wunderground v.1.15,2013-12-07 11:43:00,
2013-12-07 06:48:00,54.9,54.1,30.09,WNW,303,1.0,3.0,97,0.00,,,0.35,Wunderground v.1.15,2013-12-07 11:48:00,
2013-12-07 06:53:00,54.7,53.9,30.09,WNW,302,0.0,3.0,97,0.00,,,0.35,Wunderground v.1.15,2013-12-07 11:53:00,
2013-12-07 06:58:00,54.5,53.7,30.09,WNW,302,2.0,3.0,97,0.00,,,0.35,Wunderground v.1.15,2013-12-07 11:58:00,
2013-12-07 07:00:00,33.4,32.4,30.29,ESE,112,1.0,6.0,96,0.00,,,-99.99,WeatherLink 6.0.3,2013-12-07 12:00:00,
2013-12-07 07:03:00,54.4,53.6,30.10,WNW,302,1.0,3.0,97,0.00,,,0.35,Wunderground v.1.15,2013-12-07 12:03:00,
2013-12-07 07:08:00,54.2,53.1,30.10,WNW,302,0.0,3.0,96,0.00,,,0.35,Wunderground v.1.15,2013-12-07 12:08:00,
2013-12-07 07:13:00,54.1,53.0,30.10,WNW,302,1.0,2.0,96,0.00,,,0.35,Wunderground v.1.15,2013-12-07 12:13:00,
2013-12-07 07:18:00,53.9,52.5,30.10,WNW,302,1.0,2.0,95,0.00,,,0.35,Wunderground v.1.15,2013-12-07 12:18:00,
2013-12-07 07:23:00,53.7,52.3,30.11,WNW,302,0.0,1.0,95,0.00,,,0.35,Wunderground v.1.15,2013-12-07 12:23:00,
2013-12-07 07:28:00,53.6,52.2,30.11,WNW,302,0.0,1.0,95,0.00,,,0.35,Wunderground v.1.15,2013-12-07 12:28:00,
2013-12-07 07:30:00,33.9,33.1,30.31,ESE,112,0.0,4.0,97,0.00,,,-99.99,WeatherLink 6.0.3,2013-12-07 12:30:00,
2013-12-07 07:34:00,53.5,52.1,30.11,WNW,302,0.0,0.0,95,0.00,,,0.35,Wunderground v.1.15,2013-12-07 12:34:00,
2013-12-07 07:39:00,53.4,51.7,30.12,WNW,302,0.0,0.0,94,0.00,,,0.35,Wunderground v.1.15,2013-12-07 12:39:00,
2013-12-07 07:44:00,53.3,51.9,30.12,WNW,302,0.0,2.0,95,0.00,,,0.35,Wunderground v.1.15,2013-12-07 12:44:00,
2013-12-07 07:49:00,53.3,51.9,30.12,WNW,302,0.0,2.0,95,0.00,,,0.35,Wunderground v.1.15,2013-12-07 12:49:00,
2013-12-07 07:54:00,53.4,52.0,30.13,WNW,302,0.0,0.0,95,0.00,,,0.35,Wunderground v.1.15,2013-12-07 12:54:00,
2013-12-07 07:59:00,53.5,52.1,30.13,WNW,302,0.0,0.0,95,0.00,,,0.35,Wunderground v.1.15,2013-12-07 12:59:00,
2013-12-07 08:00:00,33.6,32.8,30.32,East,90,1.0,6.0,97,0.01,,,-99.99,WeatherLink 6.0.3,2013-12-07 13:00:00,
2013-12-07 08:04:00,53.4,51.7,30.14,WNW,302,0.0,2.0,94,0.00,,,0.35,Wunderground v.1.15,2013-12-07 13:04:00,
2013-12-07 08:09:00,53.4,51.1,30.14,WNW,303,0.0,2.0,92,0.00,,,0.35,Wunderground v.1.15,2013-12-07 13:09:00,
2013-12-07 08:14:00,53.5,50.9,30.13,WNW,303,0.0,1.0,91,0.00,,,0.35,Wunderground v.1.15,2013-12-07 13:14:00,
2013-12-07 08:19:00,53.5,50.6,30.14,WNW,303,0.0,1.0,90,0.00,,,0.35,Wunderground v.1.15,2013-12-07 13:19:00,
2013-12-07 08:24:00,53.5,50.3,30.14,NW,305,0.0,4.0,89,0.00,,,0.35,Wunderground v.1.15,2013-12-07 13:24:00,
2013-12-07 08:29:00,53.5,50.3,30.15,NW,306,0.0,4.0,89,0.00,,,0.35,Wunderground v.1.15,2013-12-07 13:29:00,
2013-12-07 08:30:00,33.3,32.5,30.31,East,90,2.0,7.0,97,0.01,,,-99.99,WeatherLink 6.0.3,2013-12-07 13:30:00,
2013-12-07 08:34:00,53.6,50.4,30.15,NW,306,0.0,2.0,89,0.00,,,0.35,Wunderground v.1.15,2013-12-07 13:34:00,
2013-12-07 08:39:00,53.7,50.8,30.15,NW,306,0.0,2.0,90,0.00,,,0.35,Wunderground v.1.15,2013-12-07 13:39:00,
2013-12-07 08:44:00,54.0,51.7,30.15,East,80,2.0,4.0,92,0.00,,,0.35,Wunderground v.1.15,2013-12-07 13:44:00,
2013-12-07 08:49:00,54.1,52.1,30.15,East,94,2.0,4.0,93,0.00,,,0.35,Wunderground v.1.15,2013-12-07 13:49:00,
2013-12-07 08:54:00,54.2,51.3,30.16,East,90,5.0,9.0,90,0.00,,,0.35,Wunderground v.1.15,2013-12-07 13:54:00,
2013-12-07 08:59:00,54.1,50.3,30.16,NE,34,1.0,9.0,87,0.00,,,0.35,Wunderground v.1.15,2013-12-07 13:59:00,
2013-12-07 09:00:00,33.4,32.6,30.31,East,90,1.0,4.0,97,0.01,,,-99.99,WeatherLink 6.0.3,2013-12-07 14:00:00,
2013-12-07 09:04:00,54.3,51.7,30.16,East,98,3.0,5.0,91,0.00,,,0.35,Wunderground v.1.15,2013-12-07 14:04:00,
2013-12-07 09:09:00,54.3,52.0,30.17,ESE,123,4.0,5.0,92,0.00,,,0.35,Wunderground v.1.15,2013-12-07 14:09:00,
2013-12-07 09:14:00,54.5,52.5,30.17,ESE,107,5.0,7.0,93,0.00,,,0.35,Wunderground v.1.15,2013-12-07 14:14:00,
2013-12-07 09:19:00,54.3,51.7,30.17,East,86,3.0,9.0,91,0.00,,,0.35,Wunderground v.1.15,2013-12-07 14:19:00,
2013-12-07 09:24:00,54.0,51.4,30.18,East,87,1.0,9.0,91,0.00,,,0.35,Wunderground v.1.15,2013-12-07 14:24:00,
2013-12-07 09:29:00,53.9,51.0,30.18,ENE,76,7.0,9.0,90,0.00,,,0.35,Wunderground v.1.15,2013-12-07 14:29:00,
2013-12-07 09:30:00,33.5,32.7,30.31,East,90,0.0,5.0,97,0.01,,,-99.99,WeatherLink 6.0.3,2013-12-07 14:30:00,
2013-12-07 09:34:00,53.5,50.9,30.18,ENE,74,2.0,7.0,91,0.00,,,0.35,Wunderground v.1.15,2013-12-07 14:34:00,
2013-12-07 09:39:00,53.3,50.7,30.19,East,89,3.0,7.0,91,0.00,,,0.35,Wunderground v.1.15,2013-12-07 14:39:00,
2013-12-07 09:44:00,53.1,50.5,30.19,ESE,115,0.0,7.0,91,0.00,,,0.35,Wunderground v.1.15,2013-12-07 14:44:00,
2013-12-07 09:49:00,53.0,50.1,30.19,ESE,109,4.0,11.0,90,0.00,,,0.35,Wunderground v.1.15,2013-12-07 14:49:00,
2013-12-07 09:54:00,53.0,50.1,30.19,ESE,111,4.0,10.0,90,0.00,,,0.35,Wunderground v.1.15,2013-12-07 14:54:00,
2013-12-07 09:59:00,53.3,50.4,30.20,East,97,0.0,11.0,90,0.00,,,0.35,Wunderground v.1.15,2013-12-07 14:59:00,
2013-12-07 10:00:00,33.8,33.0,30.31,East,90,0.0,1.0,97,0.00,,,-99.99,WeatherLink 6.0.3,2013-12-07 15:00:00,
2013-12-07 10:04:00,53.3,49.5,30.19,East,81,5.0,7.0,87,0.00,,,0.35,Wunderground v.1.15,2013-12-07 15:04:00,
2013-12-07 10:09:00,53.1,49.3,30.20,ESE,102,0.0,12.0,87,0.00,,,0.35,Wunderground v.1.15,2013-12-07 15:09:00,
2013-12-07 10:14:00,53.3,49.5,30.20,East,90,6.0,9.0,87,0.00,,,0.35,Wunderground v.1.15,2013-12-07 15:14:00,
2013-12-07 10:19:00,53.3,49.5,30.20,East,89,1.0,9.0,87,0.00,,,0.35,Wunderground v.1.15,2013-12-07 15:19:00,
2013-12-07 10:24:00,53.5,49.1,30.20,East,93,5.0,9.0,85,0.00,,,0.35,Wunderground v.1.15,2013-12-07 15:24:00,
2013-12-07 10:30:00,53.3,48.9,30.22,East,83,0.0,4.0,85,0.00,,,0.00,Wunderground v.1.15,2013-12-07 15:30:00,
2013-12-07 10:35:00,53.4,48.7,30.22,ENE,78,6.0,10.0,84,0.00,,,0.00,Wunderground v.1.15,2013-12-07 15:35:00,
2013-12-07 10:40:00,53.3,48.9,30.22,East,89,1.0,5.0,85,0.00,,,0.00,Wunderground v.1.15,2013-12-07 15:40:00,
2013-12-07 10:45:00,53.4,48.7,30.22,East,91,2.0,10.0,84,0.00,,,0.00,Wunderground v.1.15,2013-12-07 15:45:00,
2013-12-07 10:50:00,53.7,48.3,30.23,East,79,4.0,5.0,82,0.00,,,0.00,Wunderground v.1.15,2013-12-07 15:50:00,
2013-12-07 10:55:00,53.7,48.3,30.22,SE,128,6.0,10.0,82,0.00,,,0.00,Wunderground v.1.15,2013-12-07 15:55:00,
2013-12-07 11:00:00,53.5,47.8,30.22,East,79,5.0,5.0,81,0.00,,,0.00,Wunderground v.1.15,2013-12-07 16:00:00,
2013-12-07 11:05:00,53.2,47.2,30.23,East,88,4.0,10.0,80,0.00,,,0.00,Wunderground v.1.15,2013-12-07 16:05:00,
2013-12-07 11:10:00,53.2,47.2,30.23,East,98,5.0,7.0,80,0.00,,,0.00,Wunderground v.1.15,2013-12-07 16:10:00,
2013-12-07 11:15:00,53.2,46.5,30.23,East,92,7.0,13.0,78,0.00,,,0.00,Wunderground v.1.15,2013-12-07 16:15:00,
2013-12-07 11:20:00,53.6,46.9,30.23,South,169,5.0,14.0,78,0.00,,,0.00,Wunderground v.1.15,2013-12-07 16:20:00,
2013-12-07 11:25:00,53.7,46.3,30.23,East,98,5.0,14.0,76,0.00,,,0.00,Wunderground v.1.15,2013-12-07 16:25:00,
2013-12-07 11:30:00,53.7,46.7,30.22,ENE,71,6.0,6.0,77,0.00,,,0.00,Wunderground v.1.15,2013-12-07 16:30:00,
2013-12-07 11:35:00,53.9,46.9,30.22,East,84,2.0,12.0,77,0.00,,,0.00,Wunderground v.1.15,2013-12-07 16:35:00,
2013-12-07 11:40:00,53.6,46.2,30.22,East,96,5.0,7.0,76,0.00,,,0.00,Wunderground v.1.15,2013-12-07 16:40:00,
2013-12-07 11:45:00,53.7,46.7,30.22,ESE,122,11.0,11.0,77,0.00,,,0.00,Wunderground v.1.15,2013-12-07 16:45:00,
2013-12-07 11:50:00,53.7,46.3,30.22,ESE,105,6.0,13.0,76,0.00,,,0.00,Wunderground v.1.15,2013-12-07 16:50:00,
2013-12-07 11:55:00,53.7,46.7,30.21,East,83,5.0,13.0,77,0.00,,,0.00,Wunderground v.1.15,2013-12-07 16:55:00,
2013-12-07 12:00:00,33.6,32.8,30.30,East,90,0.0,2.0,97,0.00,,,-99.99,WeatherLink 6.0.3,2013-12-07 17:00:00,
2013-12-07 12:01:00,53.6,46.2,30.21,East,79,5.0,6.0,76,0.00,,,0.00,Wunderground v.1.15,2013-12-07 17:01:00,
2013-12-07 12:06:00,53.8,46.4,30.21,East,82,3.0,9.0,76,0.00,,,0.00,Wunderground v.1.15,2013-12-07 17:06:00,
2013-12-07 12:11:00,53.8,46.1,30.21,ESE,123,6.0,10.0,75,0.00,,,0.00,Wunderground v.1.15,2013-12-07 17:11:00,
2013-12-07 12:16:00,53.5,45.4,30.21,SSE,150,4.0,12.0,74,0.00,,,0.00,Wunderground v.1.15,2013-12-07 17:16:00,
2013-12-07 12:21:00,53.5,45.8,30.21,NE,52,2.0,6.0,75,0.00,,,0.00,Wunderground v.1.15,2013-12-07 17:21:00,
2013-12-07 12:26:00,53.7,46.3,30.21,East,90,6.0,7.0,76,0.00,,,0.00,Wunderground v.1.15,2013-12-07 17:26:00,
2013-12-07 12:30:00,33.6,32.8,30.28,East,90,0.0,2.0,97,0.00,,,-99.99,WeatherLink 6.0.3,2013-12-07 17:30:00,
2013-12-07 12:31:00,54.1,46.3,30.21,East,88,7.0,8.0,75,0.00,,,0.00,Wunderground v.1.15,2013-12-07 17:31:00,
2013-12-07 12:36:00,54.2,46.4,30.21,East,100,2.0,9.0,75,0.00,,,0.00,Wunderground v.1.15,2013-12-07 17:36:00,
2013-12-07 12:41:00,54.7,46.9,30.21,ESE,119,1.0,4.0,75,0.00,,,0.00,Wunderground v.1.15,2013-12-07 17:41:00,
2013-12-07 12:46:00,54.7,46.6,30.21,ESE,103,2.0,11.0,74,0.00,,,0.00,Wunderground v.1.15,2013-12-07 17:46:00,
2013-12-07 12:51:00,55.0,46.5,30.21,East,95,7.0,12.0,73,0.00,,,0.00,Wunderground v.1.15,2013-12-07 17:51:00,
2013-12-07 12:56:00,54.7,46.2,30.20,ESE,109,9.0,12.0,73,0.00,,,0.00,Wunderground v.1.15,2013-12-07 17:56:00,
2013-12-07 13:00:00,33.6,32.8,30.27,East,90,0.0,1.0,97,0.00,,,-99.99,WeatherLink 6.0.3,2013-12-07 18:00:00,
2013-12-07 13:01:00,54.4,46.3,30.20,ESE,115,2.0,12.0,74,0.00,,,0.00,Wunderground v.1.15,2013-12-07 18:01:00,
2013-12-07 13:06:00,54.5,46.0,30.20,East,99,6.0,12.0,73,0.00,,,0.00,Wunderground v.1.15,2013-12-07 18:06:00,
2013-12-07 13:11:00,54.4,45.6,30.21,East,96,5.0,12.0,72,0.00,,,0.00,Wunderground v.1.15,2013-12-07 18:11:00,
2013-12-07 13:16:00,53.8,45.0,30.21,East,101,1.0,12.0,72,0.00,,,0.00,Wunderground v.1.15,2013-12-07 18:16:00,
2013-12-07 13:21:00,54.1,46.0,30.21,South,181,2.0,6.0,74,0.00,,,0.00,Wunderground v.1.15,2013-12-07 18:21:00,
2013-12-07 13:26:00,54.5,46.0,30.20,East,96,6.0,14.0,73,0.00,,,0.00,Wunderground v.1.15,2013-12-07 18:26:00,
2013-12-07 13:30:00,33.5,32.7,30.24,East,90,0.0,4.0,97,0.00,,,-99.99,WeatherLink 6.0.3,2013-12-07 18:30:00,
2013-12-07 13:31:00,54.1,45.6,30.21,ENE,76,5.0,10.0,73,0.00,,,0.00,Wunderground v.1.15,2013-12-07 18:31:00,
2013-12-07 13:36:00,54.2,45.4,30.21,East,96,2.0,10.0,72,0.00,,,0.00,Wunderground v.1.15,2013-12-07 18:36:00,
2013-12-07 13:41:00,54.4,46.3,30.20,SE,144,4.0,8.0,74,0.00,,,0.00,Wunderground v.1.15,2013-12-07 18:41:00,
2013-12-07 13:46:00,54.2,46.1,30.20,SE,126,2.0,9.0,74,0.00,,,0.00,Wunderground v.1.15,2013-12-07 18:46:00,
2013-12-07 13:51:00,53.8,45.0,30.20,East,89,6.0,8.0,72,0.00,,,0.00,Wunderground v.1.15,2013-12-07 18:51:00,
2013-12-07 13:56:00,53.0,44.9,30.20,SSE,148,5.0,14.0,74,0.00,,,0.00,Wunderground v.1.15,2013-12-07 18:56:00,
2013-12-07 14:00:00,34.2,33.4,30.24,ESE,112,0.0,3.0,97,0.00,,,-99.99,WeatherLink 6.0.3,2013-12-07 19:00:00,
2013-12-07 14:01:00,52.9,44.8,30.20,ESE,112,7.0,8.0,74,0.00,,,0.00,Wunderground v.1.15,2013-12-07 19:01:00,
2013-12-07 14:06:00,53.1,45.4,30.21,ESE,123,6.0,8.0,75,0.00,,,0.00,Wunderground v.1.15,2013-12-07 19:06:00,
2013-12-07 14:11:00,52.8,44.4,30.20,SE,125,4.0,7.0,73,0.00,,,0.00,Wunderground v.1.15,2013-12-07 19:11:00,
2013-12-07 14:16:00,52.9,44.8,30.20,ESE,105,1.0,7.0,74,0.00,,,0.00,Wunderground v.1.15,2013-12-07 19:16:00,
2013-12-07 14:21:00,52.6,44.2,30.20,ESE,115,3.0,12.0,73,0.00,,,0.00,Wunderground v.1.15,2013-12-07 19:21:00,
2013-12-07 14:26:00,52.4,44.4,30.21,SE,140,7.0,12.0,74,0.00,,,0.00,Wunderground v.1.15,2013-12-07 19:26:00,
2013-12-07 14:30:00,34.4,33.6,30.24,East,90,0.0,1.0,97,0.01,,,-99.99,WeatherLink 6.0.3,2013-12-07 19:30:00,
2013-12-07 14:31:00,52.2,44.2,30.21,SE,126,5.0,5.0,74,0.00,,,0.00,Wunderground v.1.15,2013-12-07 19:31:00,
2013-12-07 14:36:00,52.2,44.2,30.21,SE,128,5.0,11.0,74,0.00,,,0.00,Wunderground v.1.15,2013-12-07 19:36:00,
2013-12-07 14:41:00,52.1,44.1,30.21,ESE,107,2.0,4.0,74,0.00,,,0.00,Wunderground v.1.15,2013-12-07 19:41:00,
2013-12-07 14:46:00,52.0,44.0,30.21,ESE,115,5.0,10.0,74,0.00,,,0.00,Wunderground v.1.15,2013-12-07 19:46:00,
2013-12-07 14:51:00,51.7,43.7,30.21,ESE,111,2.0,12.0,74,0.00,,,0.00,Wunderground v.1.15,2013-12-07 19:51:00,
2013-12-07 14:56:00,51.7,43.7,30.21,ESE,109,5.0,12.0,74,0.00,,,0.00,Wunderground v.1.15,2013-12-07 19:56:00,
2013-12-07 15:00:00,34.4,33.6,30.22,North,-999,0.0,0.0,97,0.02,,,-99.99,WeatherLink 6.0.3,2013-12-07 20:00:00,
2013-12-07 15:02:00,51.8,44.1,30.21,East,87,5.0,6.0,75,0.00,,,0.00,Wunderground v.1.15,2013-12-07 20:02:00,
2013-12-07 15:07:00,51.9,43.9,30.21,SE,138,5.0,9.0,74,0.00,,,0.00,Wunderground v.1.15,2013-12-07 20:07:00,
2013-12-07 15:12:00,51.8,43.8,30.21,ESE,105,2.0,7.0,74,0.00,,,0.00,Wunderground v.1.15,2013-12-07 20:12:00,
2013-12-07 15:17:00,51.7,43.7,30.21,ESE,106,3.0,7.0,74,0.00,,,0.00,Wunderground v.1.15,2013-12-07 20:17:00,
2013-12-07 15:22:00,51.9,43.9,30.21,East,94,3.0,4.0,74,0.00,,,0.00,Wunderground v.1.15,2013-12-07 20:22:00,
2013-12-07 15:27:00,51.8,43.8,30.22,ESE,102,2.0,10.0,74,0.00,,,0.00,Wunderground v.1.15,2013-12-07 20:27:00,
2013-12-07 15:30:00,34.1,33.3,30.20,ESE,112,0.0,4.0,97,0.09,,,-99.99,WeatherLink 6.0.3,2013-12-07 20:30:00,
2013-12-07 15:32:00,51.7,43.7,30.22,ESE,109,2.0,8.0,74,0.00,,,0.00,Wunderground v.1.15,2013-12-07 20:32:00,
2013-12-07 15:36:00,51.5,43.1,30.22,ESE,103,7.0,11.0,73,0.00,,,0.00,Wunderground v.1.15,2013-12-07 20:36:00,
2013-12-07 15:41:00,51.4,43.4,30.22,East,94,2.0,5.0,74,0.00,,,0.00,Wunderground v.1.15,2013-12-07 20:41:00,
2013-12-07 15:47:00,51.5,43.1,30.22,ESE,105,1.0,6.0,73,0.00,,,0.00,Wunderground v.1.15,2013-12-07 20:47:00,
2013-12-07 15:52:00,51.5,43.5,30.22,ESE,109,4.0,9.0,74,0.00,,,0.00,Wunderground v.1.15,2013-12-07 20:52:00,
2013-12-07 15:57:00,51.4,43.0,30.22,ESE,103,0.0,9.0,73,0.00,,,0.00,Wunderground v.1.15,2013-12-07 20:57:00,
2013-12-07 16:00:00,34.1,33.3,30.19,SSE,157,0.0,4.0,97,0.10,,,-99.99,WeatherLink 6.0.3,2013-12-07 21:00:00,
2013-12-07 16:02:00,51.2,42.8,30.22,ESE,119,4.0,11.0,73,0.00,,,0.00,Wunderground v.1.15,2013-12-07 21:02:00,
2013-12-07 16:07:00,51.2,42.8,30.23,ESE,122,2.0,11.0,73,0.00,,,0.00,Wunderground v.1.15,2013-12-07 21:07:00,
2013-12-07 16:12:00,51.3,42.9,30.23,East,99,4.0,10.0,73,0.00,,,0.00,Wunderground v.1.15,2013-12-07 21:12:00,
2013-12-07 16:17:00,51.2,42.8,30.23,ESE,111,5.0,10.0,73,0.00,,,0.00,Wunderground v.1.15,2013-12-07 21:17:00,
2013-12-07 16:22:00,51.0,42.6,30.24,ESE,107,7.0,11.0,73,0.00,,,0.00,Wunderground v.1.15,2013-12-07 21:22:00,
2013-12-07 16:27:00,50.9,42.2,30.24,SE,134,5.0,11.0,72,0.00,,,0.00,Wunderground v.1.15,2013-12-07 21:27:00,
2013-12-07 16:30:00,34.4,33.6,30.21,SE,135,1.0,5.0,97,0.06,,,-99.99,WeatherLink 6.0.3,2013-12-07 21:30:00,
2013-12-07 16:32:00,50.8,42.5,30.24,East,93,4.0,8.0,73,0.00,,,0.00,Wunderground v.1.15,2013-12-07 21:32:00,
2013-12-07 16:37:00,50.9,42.6,30.24,ESE,122,3.0,8.0,73,0.00,,,0.00,Wunderground v.1.15,2013-12-07 21:37:00,
2013-12-07 16:42:00,50.9,42.6,30.25,ESE,103,0.0,6.0,73,0.00,,,0.00,Wunderground v.1.15,2013-12-07 21:42:00,
2013-12-07 16:47:00,50.8,42.5,30.25,East,87,7.0,10.0,73,0.00,,,0.00,Wunderground v.1.15,2013-12-07 21:47:00,
2013-12-07 16:52:00,50.6,42.3,30.25,ESE,122,5.0,6.0,73,0.00,,,0.00,Wunderground v.1.15,2013-12-07 21:52:00,
2013-12-07 16:57:00,50.5,42.5,30.25,ESE,113,2.0,7.0,74,0.00,,,0.00,Wunderground v.1.15,2013-12-07 21:57:00,
2013-12-07 17:00:00,34.3,33.5,30.17,WNW,292,0.0,2.0,97,0.11,,,-99.99,WeatherLink 6.0.3,2013-12-07 22:00:00,
2013-12-07 17:02:00,50.4,42.1,30.26,East,99,4.0,4.0,73,0.00,,,0.00,Wunderground v.1.15,2013-12-07 22:02:00,
2013-12-07 17:07:00,50.3,42.3,30.26,ESE,117,0.0,10.0,74,0.00,,,0.00,Wunderground v.1.15,2013-12-07 22:07:00,
2013-12-07 17:12:00,50.3,42.3,30.26,SE,129,0.0,3.0,74,0.00,,,0.00,Wunderground v.1.15,2013-12-07 22:12:00,
2013-12-07 17:17:00,50.1,42.1,30.26,ESE,110,5.0,10.0,74,0.00,,,0.00,Wunderground v.1.15,2013-12-07 22:17:00,
2013-12-07 17:22:00,50.0,42.0,30.26,ESE,117,3.0,11.0,74,0.00,,,0.00,Wunderground v.1.15,2013-12-07 22:22:00,
2013-12-07 17:27:00,49.9,41.6,30.27,East,79,4.0,11.0,73,0.00,,,0.00,Wunderground v.1.15,2013-12-07 22:27:00,
2013-12-07 17:30:00,34.5,33.7,30.20,WNW,292,0.0,1.0,97,0.08,,,-99.99,WeatherLink 6.0.3,2013-12-07 22:30:00,
2013-12-07 17:32:00,49.8,41.5,30.26,East,90,3.0,7.0,73,0.00,,,0.00,Wunderground v.1.15,2013-12-07 22:32:00,
2013-12-07 17:37:00,49.7,41.4,30.26,ESE,113,7.0,11.0,73,0.00,,,0.00,Wunderground v.1.15,2013-12-07 22:37:00,
2013-12-07 17:42:00,49.7,41.4,30.27,ESE,109,2.0,9.0,73,0.00,,,0.00,Wunderground v.1.15,2013-12-07 22:42:00,
2013-12-07 17:47:00,49.6,41.7,30.27,East,96,6.0,10.0,74,0.00,,,0.00,Wunderground v.1.15,2013-12-07 22:47:00,
2013-12-07 17:52:00,49.6,41.3,30.27,East,95,6.0,6.0,73,0.00,,,0.00,Wunderground v.1.15,2013-12-07 22:52:00,
2013-12-07 17:57:00,49.6,41.3,30.27,ESE,113,4.0,10.0,73,0.00,,,0.00,Wunderground v.1.15,2013-12-07 22:57:00,
2013-12-07 18:00:00,34.5,33.7,30.19,North,-999,0.0,0.0,97,0.01,,,-99.99,WeatherLink 6.0.3,2013-12-07 23:00:00,
2013-12-07 18:02:00,49.5,41.6,30.28,East,95,4.0,4.0,74,0.00,,,0.00,Wunderground v.1.15,2013-12-07 23:02:00,
2013-12-07 18:07:00,49.6,41.7,30.27,ENE,74,2.0,5.0,74,0.00,,,0.00,Wunderground v.1.15,2013-12-07 23:07:00,
2013-12-07 18:12:00,49.5,41.2,30.28,East,90,2.0,5.0,73,0.00,,,0.00,Wunderground v.1.15,2013-12-07 23:12:00,
2013-12-07 18:17:00,49.5,41.6,30.28,ESE,110,4.0,9.0,74,0.00,,,0.00,Wunderground v.1.15,2013-12-07 23:17:00,
2013-12-07 18:22:00,49.4,41.5,30.28,ESE,113,9.0,10.0,74,0.00,,,0.00,Wunderground v.1.15,2013-12-07 23:22:00,
2013-12-07 18:28:00,49.3,41.4,30.29,East,99,1.0,10.0,74,0.00,,,0.01,Wunderground v.1.15,2013-12-07 23:28:00,
2013-12-07 18:30:00,34.6,33.8,30.15,WNW,292,0.0,2.0,97,0.00,,,-99.99,WeatherLink 6.0.3,2013-12-07 23:30:00,
2013-12-07 18:33:00,49.2,41.3,30.29,East,83,3.0,6.0,74,0.00,,,0.01,Wunderground v.1.15,2013-12-07 23:33:00,
2013-12-07 18:38:00,49.2,41.3,30.29,SE,128,4.0,9.0,74,0.00,,,0.01,Wunderground v.1.15,2013-12-07 23:38:00,
2013-12-07 18:43:00,49.1,41.2,30.29,ESE,105,3.0,10.0,74,0.00,,,0.01,Wunderground v.1.15,2013-12-07 23:43:00,
2013-12-07 18:48:00,49.0,41.1,30.29,East,101,6.0,10.0,74,0.00,,,0.01,Wunderground v.1.15,2013-12-07 23:48:00,
2013-12-07 18:53:00,48.9,41.3,30.30,East,95,3.0,6.0,75,0.00,,,0.01,Wunderground v.1.15,2013-12-07 23:53:00,
2013-12-07 18:58:00,48.9,41.3,30.30,East,101,1.0,6.0,75,0.00,,,0.01,Wunderground v.1.15,2013-12-07 23:58:00,
2013-12-07 19:00:00,34.6,33.8,30.14,SSE,157,0.0,4.0,97,0.01,,,-99.99,WeatherLink 6.0.3,2013-12-08 00:00:00,
2013-12-07 19:03:00,48.9,41.3,30.30,East,96,0.0,3.0,75,0.00,,,0.01,Wunderground v.1.15,2013-12-08 00:03:00,
2013-12-07 19:08:00,48.8,41.6,30.30,ESE,115,2.0,4.0,76,0.00,,,0.01,Wunderground v.1.15,2013-12-08 00:08:00,
2013-12-07 19:13:00,48.7,41.5,30.31,East,95,3.0,7.0,76,0.00,,,0.01,Wunderground v.1.15,2013-12-08 00:13:00,
2013-12-07 19:18:00,48.6,41.0,30.31,East,85,4.0,7.0,75,0.00,,,0.01,Wunderground v.1.15,2013-12-08 00:18:00,
2013-12-07 19:23:00,48.3,40.7,30.31,ESE,122,8.0,12.0,75,0.00,,,0.01,Wunderground v.1.15,2013-12-08 00:23:00,
2013-12-07 19:28:00,48.2,40.6,30.32,ESE,107,0.0,12.0,75,0.00,,,0.01,Wunderground v.1.15,2013-12-08 00:28:00,
2013-12-07 19:30:00,34.7,33.9,30.14,South,180,0.0,6.0,97,0.01,,,-99.99,WeatherLink 6.0.3,2013-12-08 00:30:00,
2013-12-07 19:33:00,48.1,40.5,30.32,East,94,2.0,6.0,75,0.00,,,0.01,Wunderground v.1.15,2013-12-08 00:33:00,
2013-12-07 19:38:00,48.1,40.5,30.32,ENE,76,3.0,6.0,75,0.00,,,0.01,Wunderground v.1.15,2013-12-08 00:38:00,
2013-12-07 19:43:00,47.8,40.3,30.32,ENE,72,4.0,6.0,75,0.00,,,0.01,Wunderground v.1.15,2013-12-08 00:43:00,
2013-12-07 19:48:00,47.6,40.1,30.32,East,80,4.0,8.0,75,0.00,,,0.01,Wunderground v.1.15,2013-12-08 00:48:00,
2013-12-07 19:53:00,47.5,40.0,30.32,ENE,74,2.0,4.0,75,0.00,,,0.01,Wunderground v.1.15,2013-12-08 00:53:00,
2013-12-07 19:58:00,47.3,40.1,30.33,East,101,10.0,10.0,76,0.00,,,0.01,Wunderground v.1.15,2013-12-08 00:58:00,
2013-12-07 20:00:00,35.2,34.7,30.14,South,180,0.0,3.0,98,0.00,,,-99.99,WeatherLink 6.0.3,2013-12-08 01:00:00,
2013-12-07 20:03:00,47.2,39.7,30.33,ESE,103,7.0,12.0,75,0.00,,,0.01,Wunderground v.1.15,2013-12-08 01:03:00,
2013-12-07 20:08:00,47.0,39.5,30.34,East,88,6.0,14.0,75,0.00,,,0.01,Wunderground v.1.15,2013-12-08 01:08:00,
2013-12-07 20:13:00,46.9,39.7,30.34,NE,53,0.0,10.0,76,0.00,,,0.01,Wunderground v.1.15,2013-12-08 01:13:00,
2013-12-07 20:18:00,46.9,39.4,30.34,East,101,6.0,10.0,75,0.00,,,0.01,Wunderground v.1.15,2013-12-08 01:18:00,
2013-12-07 20:23:00,46.8,39.6,30.34,East,84,5.0,6.0,76,0.00,,,0.01,Wunderground v.1.15,2013-12-08 01:23:00,
2013-12-07 20:28:00,46.7,39.5,30.34,ESE,103,6.0,9.0,76,0.00,,,0.01,Wunderground v.1.15,2013-12-08 01:28:00,
2013-12-07 20:30:00,34.9,34.4,30.15,South,180,0.0,2.0,98,0.00,,,-99.99,WeatherLink 6.0.3,2013-12-08 01:30:00,
2013-12-07 20:33:00,46.6,39.4,30.34,ESE,107,5.0,5.0,76,0.00,,,0.01,Wunderground v.1.15,2013-12-08 01:33:00,
2013-12-07 20:38:00,46.6,39.4,30.34,East,82,4.0,6.0,76,0.00,,,0.01,Wunderground v.1.15,2013-12-08 01:38:00,
2013-12-07 20:43:00,46.5,39.3,30.34,East,93,6.0,7.0,76,0.00,,,0.01,Wunderground v.1.15,2013-12-08 01:43:00,
2013-12-07 20:48:00,46.4,39.2,30.34,ENE,72,1.0,12.0,76,0.00,,,0.01,Wunderground v.1.15,2013-12-08 01:48:00,
2013-12-07 20:54:00,46.3,38.8,30.34,East,84,6.0,6.0,75,0.00,,,0.01,Wunderground v.1.15,2013-12-08 01:54:00,
2013-12-07 20:59:00,46.2,38.7,30.35,East,98,6.0,10.0,75,0.00,,,0.01,Wunderground v.1.15,2013-12-08 01:59:00,
2013-12-07 21:00:00,35.3,34.8,30.15,South,180,0.0,3.0,98,0.01,,,-99.99,WeatherLink 6.0.3,2013-12-08 02:00:00,
2013-12-07 21:04:00,46.0,38.5,30.35,SE,130,4.0,8.0,75,0.00,,,0.01,Wunderground v.1.15,2013-12-08 02:04:00,
2013-12-07 21:09:00,45.9,38.8,30.34,East,88,4.0,8.0,76,0.00,,,0.01,Wunderground v.1.15,2013-12-08 02:09:00,
2013-12-07 21:14:00,45.9,38.8,30.34,East,84,5.0,7.0,76,0.00,,,0.01,Wunderground v.1.15,2013-12-08 02:14:00,
2013-12-07 21:19:00,45.9,38.8,30.35,East,89,3.0,7.0,76,0.00,,,0.01,Wunderground v.1.15,2013-12-08 02:19:00,
2013-12-07 21:24:00,45.7,38.2,30.35,East,84,2.0,10.0,75,0.00,,,0.01,Wunderground v.1.15,2013-12-08 02:24:00,
2013-12-07 21:29:00,45.6,38.1,30.35,ENE,75,4.0,10.0,75,0.00,,,0.01,Wunderground v.1.15,2013-12-08 02:29:00,
2013-12-07 21:30:00,35.5,35.0,30.14,South,180,0.0,2.0,98,0.05,,,-99.99,WeatherLink 6.0.3,2013-12-08 02:30:00,
2013-12-07 21:34:00,45.5,38.4,30.36,NE,52,4.0,11.0,76,0.00,,,0.01,Wunderground v.1.15,2013-12-08 02:34:00,
2013-12-07 21:39:00,45.4,38.3,30.36,East,85,6.0,11.0,76,0.00,,,0.01,Wunderground v.1.15,2013-12-08 02:39:00,
2013-12-07 21:44:00,45.3,38.2,30.36,East,82,6.0,9.0,76,0.00,,,0.01,Wunderground v.1.15,2013-12-08 02:44:00,
2013-12-07 21:49:00,45.2,38.1,30.36,ESE,109,3.0,9.0,76,0.00,,,0.01,Wunderground v.1.15,2013-12-08 02:49:00,
2013-12-07 21:54:00,45.1,38.3,30.36,ESE,113,7.0,10.0,77,0.00,,,0.01,Wunderground v.1.15,2013-12-08 02:54:00,
2013-12-07 21:59:00,45.1,38.3,30.36,NE,55,2.0,10.0,77,0.00,,,0.01,Wunderground v.1.15,2013-12-08 02:59:00,
2013-12-07 22:00:00,35.7,35.2,30.15,South,180,0.0,1.0,98,0.13,,,-99.99,WeatherLink 6.0.3,2013-12-08 03:00:00,
2013-12-07 22:04:00,45.0,37.9,30.36,East,80,2.0,11.0,76,0.00,,,0.01,Wunderground v.1.15,2013-12-08 03:04:00,
2013-12-07 22:09:00,45.0,38.2,30.37,ENE,59,2.0,11.0,77,0.00,,,0.01,Wunderground v.1.15,2013-12-08 03:09:00,
2013-12-07 22:14:00,44.9,38.1,30.37,ESE,105,2.0,7.0,77,0.00,,,0.01,Wunderground v.1.15,2013-12-08 03:14:00,
2013-12-07 22:19:00,44.7,38.3,30.37,ENE,75,0.0,9.0,78,0.00,,,0.01,Wunderground v.1.15,2013-12-08 03:19:00,
2013-12-07 22:24:00,44.6,38.2,30.38,East,88,4.0,5.0,78,0.00,,,0.01,Wunderground v.1.15,2013-12-08 03:24:00,
2013-12-07 22:29:00,44.4,38.3,30.38,East,96,6.0,10.0,79,0.00,,,0.01,Wunderground v.1.15,2013-12-08 03:29:00,
2013-12-07 22:30:00,36.0,35.5,30.13,SSE,157,0.0,3.0,98,0.10,,,-99.99,WeatherLink 6.0.3,2013-12-08 03:30:00,
2013-12-07 22:34:00,44.2,38.4,30.38,East,80,3.0,8.0,80,0.00,,,0.01,Wunderground v.1.15,2013-12-08 03:34:00,
2013-12-07 22:39:00,44.0,38.5,30.38,East,97,1.0,8.0,81,0.00,,,0.01,Wunderground v.1.15,2013-12-08 03:39:00,
2013-12-07 22:44:00,43.8,38.7,30.38,East,99,6.0,7.0,82,0.00,,,0.01,Wunderground v.1.15,2013-12-08 03:44:00,
2013-12-07 22:49:00,43.3,38.5,30.38,East,87,7.0,10.0,83,0.00,,,0.01,Wunderground v.1.15,2013-12-08 03:49:00,
2013-12-07 22:54:00,43.0,38.5,30.38,East,83,5.0,7.0,84,0.00,,,0.01,Wunderground v.1.15,2013-12-08 03:54:00,
2013-12-07 22:59:00,42.8,38.6,30.38,ENE,78,6.0,11.0,85,0.00,,,0.01,Wunderground v.1.15,2013-12-08 03:59:00,
2013-12-07 23:00:00,36.4,35.9,30.14,SE,135,0.0,4.0,98,0.02,,,-99.99,WeatherLink 6.0.3,2013-12-08 04:00:00,
2013-12-07 23:04:00,42.6,38.7,30.38,ENE,78,4.0,8.0,86,0.00,,,0.01,Wunderground v.1.15,2013-12-08 04:04:00,
2013-12-07 23:09:00,42.5,38.6,30.38,East,98,5.0,11.0,86,0.00,,,0.01,Wunderground v.1.15,2013-12-08 04:09:00,
2013-12-07 23:14:00,42.4,38.5,30.37,ESE,103,5.0,7.0,86,0.00,,,0.01,Wunderground v.1.15,2013-12-08 04:14:00,
2013-12-07 23:19:00,42.3,38.7,30.37,ENE,74,1.0,7.0,87,0.00,,,0.01,Wunderground v.1.15,2013-12-08 04:19:00,
2013-12-07 23:24:00,42.3,38.7,30.37,NE,37,0.0,4.0,87,0.00,,,0.01,Wunderground v.1.15,2013-12-08 04:24:00,
2013-12-07 23:29:00,42.2,38.6,30.37,NE,42,0.0,5.0,87,0.00,,,0.01,Wunderground v.1.15,2013-12-08 04:29:00,
2013-12-07 23:30:00,37.0,36.5,30.15,SSE,157,0.0,2.0,98,0.01,,,-99.99,WeatherLink 6.0.3,2013-12-08 04:30:00,
2013-12-07 23:34:00,42.2,38.6,30.37,NE,46,0.0,4.0,87,0.00,,,0.01,Wunderground v.1.15,2013-12-08 04:34:00,
2013-12-07 23:39:00,42.1,38.5,30.36,East,86,2.0,6.0,87,0.00,,,0.01,Wunderground v.1.15,2013-12-08 04:39:00,
2013-12-07 23:44:00,42.1,38.5,30.37,East,95,1.0,4.0,87,0.00,,,0.01,Wunderground v.1.15,2013-12-08 04:44:00,
2013-12-07 23:49:00,42.1,38.5,30.36,East,98,3.0,6.0,87,0.00,,,0.01,Wunderground v.1.15,2013-12-08 04:49:00,
2013-12-07 23:54:00,42.2,38.6,30.36,ENE,75,0.0,3.0,87,0.00,,,0.01,Wunderground v.1.15,2013-12-08 04:54:00,
2013-12-07 23:59:00,42.2,38.3,30.36,ENE,72,0.0,3.0,86,0.00,,,0.01,Wunderground v.1.15,2013-12-08 04:59:00,